St George Municipal Airport
KSGU : now visible

Airfield :











YOU CAN JOIN US ON...

 
LOGIN :

Register | Disclaimer

   EN    FR    IT 

 









Legend :    VFR   Marginal VFR   IFR   Intensive IFR   Very Intensive IFR
Visi :
Ceiling :
>= 8 km
>= 3000ft
5 to 8 km
1000 to 3000 ft
1500m to 5 km
500 to 1000 ft
800 to 1500m
200 to 500 ft
< 800m
< 200 ft
Symbols :   Thunderstorms  Fog  Heavy snow  Heavy precipitations  Wind > 20 kt






- Airport Elevation : 2941 ft


KSGU - St George Municipal

CURRENT METAR :
  • 220556Z AUTO 00000KT 10SM CLR 05/01 A3011 RMK AO2 SLP197 T00500011 10111 20050 51011

EXPIRED METARs :
  • 220456Z AUTO 00000KT 10SM CLR 06/01 A3010 RMK AO2 SLP195 T00610011
  • 220356Z AUTO 13005KT 10SM SCT060 06/02 A3009 RMK AO2 SLP191 T00610017

TAF KSGU
Valid from the 22 at 06:00 until the 23 at 06:00 UTC


220531Z 2206/2306 VRB04KT P6SM SCT060



MET'MAP, your aeronautical weather chart ! - Copyright ORBIFLY December 2007 - Disclaimer

ORBIFLY MET'MAP TEAM :

Programming & Development : Alexandra Zaïnal
Concept & original design : Baudouin d'Aumeries
Assistance for programming : Marc-Olivier Méhu
Technical & hardware support : Manuel Goepfert

Contact : metmap@orbifly.com




SOURCES & CREDITS :

   NOAA       Earth
Advisory